Location: Unspecified
(41.1637°N, 24.2901°E)
Time: 09:33:22
(UTC+01:00)

ISS - Pass Details

Date: 26 October 2020
Orbit: 417 x 420 km, 51.6° (Epoch: 29 October)

Event Time Altitude Azimuth Distance (km) Brightness Sun altitude
Exits shadow 05:07:10 11° 279° (W) 1,428 -1.8 -8.2°
Maximum altitude 05:09:52 26° 337° (NNW) 853 -2.5 -7.7°
Drops below altitude 10° 05:12:47 10° 37° (NE) 1,498 -0.6 -7.1°
Sets 05:15:06 0° 50° (NE) 2,364 0.7 -6.7°
